When you browse on this site, cookies collect data to enhance your experience and personalize the content and advertising you see.
Visit our Privacy Policy to learn more. By continuing to use the site, you agree to this use of cookies and data.
  • En España
  • Lista de países
  • Para 7 días
  • Temperatura del agua
  • El tiempo en el mapa
  • Informadores
  • user-avatar
    Iniciar sesión

    Tiempo cada hora Taba

    Hoy, 22 Octubre, Martes

    Tiempo Temperatura Precipitaciones Viento Presión Humedad
    00:00 +21°C° 0 mm 1 mps 691 mmHg 47%
    01:00 +21°C° 0 mm 1 mps 691 mmHg 48%
    02:00 +19°C° 0 mm 2 mps 690 mmHg 49%
    03:00 +20°C° 0 mm 1 mps 690 mmHg 51%
    04:00 +20°C° 0 mm 1 mps 690 mmHg 52%
    05:00 +19°C° 0 mm 1 mps 690 mmHg 54%
    06:00 +21°C° 0 mm 1 mps 690 mmHg 50%
    07:00 +21°C° 0 mm 2 mps 691 mmHg 46%
    08:00 +24°C° 0 mm 2 mps 691 mmHg 42%
    09:00 +25°C° 0 mm 2 mps 691 mmHg 37%
    10:00 +27°C° 0 mm 1 mps 691 mmHg 33%
    11:00 +28°C° 0 mm 1 mps 692 mmHg 28%
    12:00 +29°C° 0 mm 2 mps 691 mmHg 25%
    13:00 +30°C° 0 mm 2 mps 691 mmHg 22%
    14:00 +31°C° 0 mm 3 mps 690 mmHg 19%
    15:00 +29°C° 0 mm 3 mps 690 mmHg 22%
    16:00 +28°C° 0 mm 3 mps 690 mmHg 24%
    17:00 +27°C° 0 mm 2 mps 690 mmHg 26%
    18:00 +26°C° 0 mm 2 mps 690 mmHg 32%
    19:00 +24°C° 0 mm 2 mps 690 mmHg 38%
    20:00 +23°C° 0 mm 2 mps 690 mmHg 44%
    21:00 +21°C° 0 mm 2 mps 690 mmHg 49%
    22:00 +20°C° 0 mm 2 mps 690 mmHg 54%
    23:00 +19°C° 0 mm 2 mps 690 mmHg 59%

    Mañana, 23 Octubre, Miércoles

    Tiempo Temperatura Precipitaciones Viento Presión Humedad
    00:00 +19°C° 0 mm 2 mps 690 mmHg 59%
    01:00 +20°C° 0 mm 1 mps 689 mmHg 60%
    02:00 +19°C° 0 mm 1 mps 689 mmHg 60%
    03:00 +19°C° 0 mm 1 mps 689 mmHg 67%
    04:00 +17°C° 0 mm 2 mps 689 mmHg 74%
    05:00 +16°C° 0 mm 2 mps 689 mmHg 80%
    06:00 +18°C° 0 mm 2 mps 690 mmHg 73%
    07:00 +20°C° 0 mm 1 mps 690 mmHg 66%
    08:00 +21°C° 0 mm 1 mps 690 mmHg 59%
    09:00 +23°C° 0 mm 1 mps 691 mmHg 50%
    10:00 +25°C° 0 mm 1 mps 691 mmHg 41%
    11:00 +27°C° 0 mm 2 mps 691 mmHg 32%
    12:00 +28°C° 0 mm 2 mps 691 mmHg 30%
    13:00 +28°C° 0 mm 2 mps 691 mmHg 27%
    14:00 +29°C° 0 mm 2 mps 690 mmHg 25%
    15:00 +28°C° 0 mm 3 mps 690 mmHg 29%
    16:00 +26°C° 0 mm 3 mps 690 mmHg 34%
    17:00 +25°C° 0 mm 3 mps 690 mmHg 38%
    18:00 +23°C° 0 mm 4 mps 690 mmHg 43%
    19:00 +22°C° 0 mm 4 mps 691 mmHg 49%
    20:00 +20°C° 0 mm 4 mps 691 mmHg 54%
    21:00 +19°C° 0 mm 3 mps 691 mmHg 61%
    22:00 +18°C° 0 mm 3 mps 691 mmHg 69%
    23:00 +17°C° 0 mm 2 mps 691 mmHg 76%

    Pasado mañana, 24 Octubre, Jueves

    Tiempo Temperatura Precipitaciones Viento Presión Humedad
    00:00 +17°C° 0 mm 2 mps 691 mmHg 76%
    01:00 +18°C° 0 mm 1 mps 690 mmHg 75%
    02:00 +18°C° 0 mm 1 mps 690 mmHg 75%
    03:00 +18°C° 0 mm 1 mps 690 mmHg 75%
    04:00 +16°C° 0 mm 1 mps 690 mmHg 75%
    05:00 +16°C° 0 mm 1 mps 690 mmHg 75%
    06:00 +18°C° 0 mm 1 mps 690 mmHg 69%
    07:00 +20°C° 0 mm 1 mps 691 mmHg 62%
    08:00 +21°C° 0 mm 1 mps 692 mmHg 56%
    09:00 +22°C° 0 mm 1 mps 692 mmHg 49%
    10:00 +23°C° 0 mm 1 mps 692 mmHg 42%
    11:00 +24°C° 0 mm 1 mps 692 mmHg 35%
    12:00 +25°C° 0 mm 1 mps 691 mmHg 32%
    13:00 +26°C° 0 mm 2 mps 691 mmHg 29%
    14:00 +27°C° 0 mm 2 mps 691 mmHg 26%
    15:00 +26°C° 0 mm 2 mps 691 mmHg 29%
    16:00 +25°C° 0 mm 2 mps 690 mmHg 31%
    17:00 +24°C° 0 mm 3 mps 690 mmHg 33%
    18:00 +22°C° 0 mm 3 mps 691 mmHg 36%
    19:00 +21°C° 0 mm 3 mps 691 mmHg 38%
    20:00 +20°C° 0 mm 3 mps 691 mmHg 40%
    21:00 +19°C° 0 mm 3 mps 691 mmHg 47%
    22:00 +18°C° 0 mm 3 mps 691 mmHg 54%
    23:00 +18°C° 0 mm 3 mps 691 mmHg 61%

    25 Octubre, Viernes

    Tiempo Temperatura Precipitaciones Viento Presión Humedad
    00:00 +17°C° 0 mm 2 mps 691 mmHg 63%
    01:00 +17°C° 0 mm 2 mps 690 mmHg 66%
    02:00 +16°C° 0 mm 1 mps 690 mmHg 69%
    03:00 +16°C° 0 mm 1 mps 690 mmHg 68%
    04:00 +16°C° 0 mm 1 mps 690 mmHg 68%
    05:00 +16°C° 0 mm 1 mps 690 mmHg 68%
    06:00 +18°C° 0 mm 1 mps 691 mmHg 62%
    07:00 +19°C° 0 mm 1 mps 691 mmHg 56%
    08:00 +19°C° 0 mm 2 mps 692 mmHg 51%
    09:00 +20°C° 0 mm 2 mps 692 mmHg 46%
    10:00 +23°C° 0 mm 2 mps 692 mmHg 41%
    11:00 +24°C° 0 mm 2 mps 692 mmHg 36%
    12:00 +24°C° 0 mm 3 mps 692 mmHg 33%
    13:00 +25°C° 0 mm 3 mps 691 mmHg 31%
    14:00 +26°C° 0 mm 4 mps 691 mmHg 28%
    15:00 +25°C° 0 mm 4 mps 691 mmHg 32%
    16:00 +23°C° 0 mm 4 mps 691 mmHg 35%
    17:00 +22°C° 0 mm 5 mps 691 mmHg 39%
    18:00 +21°C° 0 mm 5 mps 691 mmHg 44%
    19:00 +20°C° 0 mm 5 mps 691 mmHg 48%
    20:00 +19°C° 0 mm 4 mps 692 mmHg 52%
    21:00 +19°C° 0 mm 4 mps 691 mmHg 56%
    22:00 +18°C° 0 mm 4 mps 691 mmHg 59%
    23:00 +18°C° 0 mm 3 mps 691 mmHg 62%

    26 Octubre, Sábado

    Tiempo Temperatura Precipitaciones Viento Presión Humedad
    00:00 +17°C° 0 mm 3 mps 691 mmHg 65%
    01:00 +17°C° 0 mm 3 mps 691 mmHg 68%
    02:00 +16°C° 0 mm 2 mps 691 mmHg 72%
    03:00 +16°C° 0 mm 3 mps 691 mmHg 76%
    04:00 +16°C° 0 mm 3 mps 691 mmHg 80%
    05:00 +14°C° 0 mm 3 mps 691 mmHg 84%
    06:00 +16°C° 0 mm 3 mps 692 mmHg 80%
    07:00 +17°C° 0 mm 3 mps 692 mmHg 77%
    08:00 +18°C° 0 mm 4 mps 693 mmHg 73%
    09:00 +19°C° 0 mm 4 mps 693 mmHg 67%
    10:00 +21°C° 0 mm 5 mps 693 mmHg 61%
    11:00 +22°C° 0 mm 5 mps 693 mmHg 55%
    12:00 +22°C° 0 mm 6 mps 693 mmHg 53%
    13:00 +23°C° 0 mm 7 mps 693 mmHg 51%
    14:00 +23°C° 0 mm 7 mps 692 mmHg 49%
    15:00 +22°C° 0 mm 7 mps 692 mmHg 50%
    16:00 +22°C° 0 mm 6 mps 692 mmHg 50%
    17:00 +21°C° 0 mm 6 mps 692 mmHg 50%
    18:00 +20°C° 0 mm 6 mps 693 mmHg 57%
    19:00 +19°C° 0 mm 5 mps 693 mmHg 63%
    20:00 +17°C° 0 mm 5 mps 693 mmHg 69%
    21:00 +16°C° 0 mm 5 mps 693 mmHg 74%
    22:00 +17°C° 0 mm 4 mps 692 mmHg 79%
    23:00 +16°C° 0 mm 3 mps 692 mmHg 84%

    27 Octubre, Domingo

    Tiempo Temperatura Precipitaciones Viento Presión Humedad
    00:00 +14°C° 0 mm 3 mps 692 mmHg 86%
    01:00 +14°C° 0 mm 3 mps 692 mmHg 88%
    02:00 +15°C° 0 mm 2 mps 692 mmHg 91%
    03:00 +15°C° 0 mm 2 mps 692 mmHg 91%
    04:00 +14°C° 0 mm 2 mps 692 mmHg 92%
    05:00 +14°C° 0 mm 2 mps 692 mmHg 92%
    06:00 +15°C° 0 mm 2 mps 692 mmHg 85%
    07:00 +16°C° 0 mm 2 mps 692 mmHg 78%
    08:00 +17°C° 0 mm 3 mps 693 mmHg 71%
    09:00 +19°C° 0 mm 3 mps 693 mmHg 60%
    10:00 +21°C° 0 mm 4 mps 693 mmHg 49%
    11:00 +22°C° 0 mm 4 mps 693 mmHg 38%
    12:00 +23°C° 0 mm 4 mps 693 mmHg 35%
    13:00 +25°C° 0 mm 5 mps 692 mmHg 33%
    14:00 +25°C° 0 mm 5 mps 692 mmHg 30%
    15:00 +23°C° 0 mm 5 mps 692 mmHg 34%
    16:00 +22°C° 0 mm 5 mps 692 mmHg 37%
    17:00 +21°C° 0 mm 4 mps 692 mmHg 41%
    18:00 +20°C° 0 mm 4 mps 692 mmHg 48%
    19:00 +19°C° 0 mm 4 mps 692 mmHg 55%
    20:00 +18°C° 0 mm 4 mps 692 mmHg 62%
    21:00 +18°C° 0 mm 4 mps 692 mmHg 68%
    22:00 +17°C° 0 mm 3 mps 692 mmHg 74%
    23:00 +16°C° 0 mm 3 mps 692 mmHg 80%

    28 Octubre, Lunes

    Tiempo Temperatura Precipitaciones Viento Presión Humedad
    00:00 +16°C° 0 mm 3 mps 691 mmHg 82%
    01:00 +15°C° 0 mm 2 mps 691 mmHg 85%
    02:00 +15°C° 0 mm 2 mps 691 mmHg 87%
    03:00 +15°C° 0 mm 2 mps 691 mmHg 88%
    04:00 +14°C° 0 mm 2 mps 691 mmHg 88%
    05:00 +14°C° 0 mm 2 mps 690 mmHg 89%
    06:00 +15°C° 0 mm 2 mps 691 mmHg 81%
    07:00 +16°C° 0 mm 2 mps 691 mmHg 74%
    08:00 +18°C° 0 mm 2 mps 692 mmHg 67%
    09:00 +19°C° 0 mm 2 mps 692 mmHg 58%
    10:00 +21°C° 0 mm 3 mps 692 mmHg 49%
    11:00 +24°C° 0 mm 3 mps 692 mmHg 41%
    12:00 +25°C° 0 mm 3 mps 692 mmHg 37%
    13:00 +26°C° 0 mm 4 mps 691 mmHg 33%
    14:00 +26°C° 0 mm 4 mps 691 mmHg 29%
    15:00 +25°C° 0 mm 4 mps 691 mmHg 31%
    16:00 +23°C° 0 mm 5 mps 691 mmHg 34%
    17:00 +22°C° 0 mm 5 mps 691 mmHg 37%
    18:00 +20°C° 0 mm 4 mps 691 mmHg 43%
    19:00 +19°C° 0 mm 4 mps 691 mmHg 50%
    20:00 +18°C° 0 mm 3 mps 691 mmHg 56%
    21:00 +17°C° 0 mm 3 mps 691 mmHg 64%
    22:00 +17°C° 0 mm 3 mps 691 mmHg 71%
    23:00 +16°C° 0 mm 2 mps 691 mmHg 78%
    Mostrar más